Location: Unspecified
(0.0000°N, 0.0000°E)
Time: 14:33:52
(UTC+00:00)

STARLINK-1752 - Pass Details

Date: 18 November 2025
Orbit: 418 x 431 km, 53.1° (Epoch: 10 December)

Event Time Altitude Azimuth Distance (km) Brightness Sun altitude
Rises 18:29:13 0° 311° (NW) 2,447 7.4 -10.4°
Reaches altitude 10° 18:31:30 10° 300° (WNW) 1,570 6.5 -10.9°
Maximum altitude 18:34:40 31° 236° (SW) 802 5.3 -11.6°
Drops below altitude 10° 18:37:49 10° 172° (S) 1,552 6.1 -12.4°
Sets 18:40:03 0° 161° (SSE) 2,411 6.9 -12.9°
